[[{"header":{"parameterUnit":"m.s-1","parameterCategory":2,"la1":30.2991,"la2":30.254,"lo1":-89.0895,"lo2":-89.0444,"dy":0.0017,"dx":0.0017,"nx":28,"ny":28,"refTime":"2023-09-19T03:00:00:Z","depth":"0","parameterNumber":2,"parameterNumberName":"U-component_of_CURRENTS"},"data":[0,0,0,0,0,0,0,0,0,0,0,0,0,0,0,0,0,0,0,0,0,0,0,0,0,0,0,0,0,0,0,0,0,0,0,0,0,0,0,0,0,0,0,0,0,0,0,0,0,0,0,0,0,0,0,0,0,0,0.1903,0.1904,0,0.195,0.195,0.1951,0.1963,0.1963,0.1963,0.1963,0.1993,0.1994,0.1995,0,0,0,0,0,0,0,0,0,0,0,0,0,0.1857,0.1857,0.1903,0.1904,0.1904,0.1949,0.195,0.1951,0.1964,0.1963,0.1963,0.1962,0.1993,0.1994,0.1995,0,0,0,0,0,0,0,0,0,0,0,0,0,0.1888,0.1858,0.1903,0.1916,0.1917,0.1949,0.195,0.1951,0.1964,0.1963,0.1963,0.1962,0.1992,0.1994,0.1995,0.2015,0,0,0.2,0.2001,0,0,0,0,0,0,0,0,0.1886,0.1889,0.1913,0.1915,0.1917,0.195,0.1945,0.1971,0.1964,0.1946,0.1963,0.1962,0.1977,0.198,0.1991,0.2016,0.2017,0.2,0.2001,0.2002,0.2003,0,0,0,0,0,0,0,0.1884,0.1888,0.1922,0.1914,0.1916,0.193,0.1933,0.195,0.1964,0.1948,0.1949,0.1953,0.1978,0.1989,0.1991,0.2018,0.2,0.2002,0.2003,0.2004,0.2103,0.2105,0,0,0,0,0,0,0.1876,0.1886,0.192,0.1923,0.1899,0.1931,0.1935,0.194,0.1964,0.1967,0.1954,0.1954,0.1986,0.1989,0.1992,0.2035,0.2002,0.2004,0.2005,0.2102,0.2104,0.2105,0,0,0,0,0,0,0.1875,0.1879,0.1919,0.1905,0.1911,0.1932,0.1938,0.1941,0.1956,0.1969,0.1971,0.1965,0.1986,0.199,0.2011,0.2036,0.2004,0.2006,0.21,0.2102,0.2104,0.2109,0,0,0,0,0,0,0.1873,0.1878,0.1882,0.1905,0.1911,0.1941,0.1938,0.1942,0.1959,0.196,0.198,0.1982,0.1986,0.2009,0.2013,0.2037,0.2007,0.2097,0.2101,0.2104,0.2107,0.2111,0.2115,0,0,0,0,0,0.1872,0.1881,0.1882,0.1887,0.1916,0.1941,0.1947,0.196,0.196,0.1971,0.1982,0.1981,0.2032,0.2011,0.2015,0.2041,0.2096,0.21,0.2103,0.2105,0.211,0.2115,0,0,0,0,0,0,0.1864,0.1884,0.1886,0.19,0.1919,0.1943,0.1955,0.1964,0.1983,0.1983,0.1992,0.1996,0.2029,0.2037,0.2013,0.2083,0.2069,0.2074,0.2069,0.2074,0.2078,0.2072,0.2009,0,0,0,0,0,0.1864,0.1876,0.1895,0.1908,0.1916,0.1936,0.1949,0.1959,0.1977,0.1985,0.1997,0.202,0.205,0.206,0.2085,0.2113,0.2141,0.2139,0.2143,0.2146,0.2147,0.2198,0.2206,0.2118,0.2118,0.2118,0,0,0.1863,0.1877,0.1883,0.1907,0.1922,0.194,0.1943,0.1965,0.1983,0.1986,0.2012,0.2033,0.2062,0.2097,0.2114,0.2104,0.2195,0.2151,0.2153,0.2153,0.2202,0.2211,0.2218,0.212,0.212,0.2119,0,0,0.1872,0.1881,0.1894,0.191,0.1934,0.1947,0.1954,0.1979,0.1993,0.2018,0.2035,0.2065,0.21,0.2128,0.2147,0.2191,0.2217,0.2209,0.222,0.2269,0.2276,0.2283,0.2359,0.2372,0.2208,0.2208,0.2208,0,0.187,0.1889,0.1902,0.192,0.1935,0.195,0.1968,0.1988,0.2017,0.2036,0.2027,0.2103,0.2116,0.2176,0.2188,0.2199,0.2241,0.2192,0.2273,0.2279,0.2286,0.2362,0.2377,0.2209,0.2209,0.2209,0.2209,0,0.1888,0.1904,0.1914,0.1939,0.1957,0.1976,0.2,0.2022,0.2035,0.2057,0.2113,0.2136,0.2182,0.2198,0.22,0.2267,0.2289,0.2272,0.2252,0.2295,0.2374,0.2388,0.221,0.2209,0.2209,0.2209,0,0,0.1873,0.1917,0.1919,0.1938,0.1968,0.1988,0.2018,0.2057,0.209,0.2114,0.2164,0.2205,0.2222,0.2246,0.2266,0.2299,0.2381,0.2302,0.2304,0.2366,0.252,0.2568,0.2589,0.2376,0.2378,0.238,0.2566,0,0.188,0.1918,0.1937,0.1972,0.1991,0.2017,0.2047,0.2085,0.2119,0.2171,0.2205,0.2263,0.2242,0.2276,0.2303,0.2369,0.2417,0.2334,0.248,0.2485,0.2511,0.2606,0.2525,0.2686,0.258,0.2583,0.2585,0,0.1882,0.1912,0.1946,0.1996,0.2007,0.2031,0.209,0.2121,0.2191,0.2221,0.2274,0.2312,0.2384,0.2349,0.2473,0.2424,0.2471,0.251,0.2517,0.2566,0.256,0.2623,0.2717,0.2635,0.2608,0.2606,0.2604,0,0.1863,0.1913,0.1944,0.1959,0.2017,0.2042,0.2074,0.2138,0.2179,0.2266,0.2317,0.2392,0.2459,0.2512,0.2594,0.2542,0.2736,0.2675,0.2769,0.2774,0.2736,0.2735,0.2753,0.2759,0.2759,0.2758,0.2757,0,0.1855,0.1877,0.1941,0.1957,0.199,0.2042,0.2086,0.2131,0.222,0.2295,0.2346,0.244,0.25,0.2614,0.2649,0.2788,0.279,0.2804,0.2831,0.2741,0.2738,0.2688,0.2647,0.2765,0.2763,0.2762,0.2761,0,0.1815,0.186,0.1892,0.1961,0.1978,0.2002,0.2074,0.2128,0.2213,0.2321,0.2361,0.2507,0.2675,0.2755,0.2888,0.289,0.2928,0.3035,0.2946,0.2959,0.2933,0.2896,0.2872,0.2782,0.3163,0.3165,0.3167,0,0.1796,0.1813,0.1872,0.1894,0.1921,0.1965,0.2006,0.2099,0.2177,0.2377,0.2451,0.2648,0.2776,0.3005,0.3088,0.3207,0.3057,0.3171,0.3039,0.2957,0.2935,0.2781,0.2691,0.3006,0.3006,0.3007,0.3007,0,0.175,0.1773,0.18,0.1841,0.1885,0.1921,0.2006,0.2064,0.2217,0.2325,0.2517,0.2637,0.2914,0.3021,0.3197,0.3241,0.3021,0.3185,0.3106,0.2837,0.2663,0.258,0.2878,0.3011,0.3011,0.301,0.301,0.301,0.1703,0.1704,0.1743,0.1777,0.1822,0.1876,0.1887,0.2017,0.2119,0.2289,0.249,0.2638,0.2875,0.3124,0.3157,0.3175,0.3111,0.3064,0.3042,0.2904,0.2756,0.3093,0.3244,0.3245,0.3246,0.3247,0.3247,0,0.1637,0.1653,0.1683,0.171,0.1729,0.1784,0.1881,0.1898,0.1991,0.2212,0.2358,0.2617,0.2762,0.2923,0.3091,0.3025,0.2827,0.2935,0.2661,0.2588,0.2911,0.2841,0.2902,0.2902,0.2903,0.2903,0.2903,0.2903,0.1601,0.1599,0.1618,0.1608,0.1632,0.1625,0.1659,0.1717,0.184,0.2017,0.2179,0.2366,0.2692,0.2926,0.2942,0.2869,0.2613,0.2541,0.249,0.2691,0.2697,0.2703,0.2625,0.264,0.264,0.2029,0.2025,0.2022]},{"header":{"parameterUnit":"m.s-1","parameterCategory":2,"la1":30.2991,"la2":30.254,"lo1":-89.0895,"lo2":-89.0444,"dy":0.0017,"dx":0.0017,"nx":28,"ny":28,"refTime":"2023-09-19T03:00:00:Z","depth":"0","parameterNumber":3,"parameterNumberName":"V-component_of_CURRENTS"},"data":[0,0,0,0,0,0,0,0,0,0,0,0,0,0,0,0,0,0,0,0,0,0,0,0,0,0,0,0,0,0,0,0,0,0,0,0,0,0,0,0,0,0,0,0,0,0,0,0,0,0,0,0,0,0,0,0,0,0,-0.0152,-0.0153,0,-0.0251,-0.0253,-0.0254,-0.0321,-0.0321,-0.0321,-0.0321,-0.0461,-0.0464,-0.0468,0,0,0,0,0,0,0,0,0,0,0,0,0,-0.0088,-0.0089,-0.0152,-0.0153,-0.0154,-0.0251,-0.0253,-0.0254,-0.0321,-0.0321,-0.0321,-0.0321,-0.0459,-0.0464,-0.0468,0,0,0,0,0,0,0,0,0,0,0,0,0,-0.0147,-0.0089,-0.0152,-0.0196,-0.0201,-0.0251,-0.0253,-0.0255,-0.0321,-0.0321,-0.0321,-0.0321,-0.0458,-0.0463,-0.0468,-0.0496,0,0,-0.0485,-0.0487,0,0,0,0,0,0,0,0,-0.0144,-0.015,-0.0189,-0.0193,-0.0199,-0.0271,-0.0281,-0.0336,-0.032,-0.0278,-0.0321,-0.0321,-0.0399,-0.0409,-0.0431,-0.0503,-0.0509,-0.0485,-0.0488,-0.0491,-0.0492,0,0,0,0,0,0,0,-0.0139,-0.0146,-0.0194,-0.019,-0.0196,-0.0234,-0.0243,-0.0292,-0.0339,-0.0282,-0.0286,-0.0292,-0.0402,-0.0426,-0.0435,-0.0511,-0.0485,-0.049,-0.0493,-0.0495,-0.0608,-0.0608,0,0,0,0,0,0,-0.0117,-0.0142,-0.0191,-0.0197,-0.0168,-0.0235,-0.0245,-0.025,-0.0338,-0.035,-0.0292,-0.0295,-0.0416,-0.0428,-0.044,-0.0469,-0.0491,-0.0496,-0.0499,-0.0608,-0.0608,-0.0608,0,0,0,0,0,0,-0.0115,-0.012,-0.0187,-0.0169,-0.018,-0.0235,-0.0241,-0.0252,-0.0271,-0.0344,-0.0358,-0.0299,-0.0417,-0.0432,-0.0477,-0.0475,-0.0498,-0.0503,-0.0608,-0.0608,-0.0608,-0.0533,0,0,0,0,0,0,-0.0113,-0.0119,-0.0118,-0.0168,-0.018,-0.0206,-0.0241,-0.0253,-0.0273,-0.0278,-0.0355,-0.0369,-0.0418,-0.0469,-0.0482,-0.0483,-0.0507,-0.0609,-0.0608,-0.0608,-0.0536,-0.053,-0.0526,0,0,0,0,0,-0.011,-0.0106,-0.0118,-0.0124,-0.0176,-0.0206,-0.0216,-0.0258,-0.0273,-0.0278,-0.0329,-0.0366,-0.0476,-0.0473,-0.0489,-0.0491,-0.0609,-0.0608,-0.0608,-0.0538,-0.0531,-0.0526,0,0,0,0,0,0,-0.0081,-0.0114,-0.0127,-0.0134,-0.0161,-0.0215,-0.0224,-0.0249,-0.0294,-0.0299,-0.0367,-0.0384,-0.0424,-0.0465,-0.046,-0.0522,-0.0548,-0.055,-0.0489,-0.0483,-0.0478,-0.0448,-0.0512,0,0,0,0,0,-0.0071,-0.0075,-0.0112,-0.0116,-0.0125,-0.0172,-0.0189,-0.0214,-0.0258,-0.0278,-0.033,-0.0386,-0.0436,-0.0463,-0.0514,-0.0548,-0.0569,-0.0558,-0.0553,-0.0549,-0.0535,-0.0566,-0.0562,-0.0606,-0.0606,-0.0606,0,0,-0.006,-0.0078,-0.0081,-0.011,-0.0135,-0.0144,-0.0183,-0.0201,-0.0211,-0.0286,-0.0318,-0.0372,-0.0441,-0.048,-0.0501,-0.0513,-0.0546,-0.0548,-0.0543,-0.0532,-0.0565,-0.0561,-0.0557,-0.0606,-0.0606,-0.0606,0,0,-0.0038,-0.0055,-0.005,-0.0067,-0.0093,-0.012,-0.0118,-0.0164,-0.0187,-0.0222,-0.0278,-0.0321,-0.04,-0.0445,-0.0479,-0.0474,-0.0518,-0.0496,-0.0448,-0.0478,-0.0474,-0.0471,-0.048,-0.0479,-0.0492,-0.0492,-0.0492,0,-0.0023,-0.0023,-0.0053,-0.0052,-0.0058,-0.0102,-0.0095,-0.0126,-0.0182,-0.0194,-0.0219,-0.0322,-0.038,-0.0425,-0.0427,-0.0461,-0.048,-0.0465,-0.047,-0.0467,-0.0466,-0.0476,-0.0475,-0.0489,-0.0489,-0.0489,-0.049,0,0.0002,0.0002,0.0006,-0.0005,-0.0016,-0.0017,-0.0053,-0.0068,-0.0098,-0.0132,-0.0176,-0.0254,-0.0309,-0.034,-0.0386,-0.0406,-0.0422,-0.0459,-0.048,-0.0456,-0.0469,-0.0469,-0.0483,-0.0485,-0.0486,-0.0487,0,0,0.0037,0.0027,0.0028,0.0038,0.0012,0.001,-0.0001,-0.0021,-0.0019,-0.0079,-0.0084,-0.0175,-0.0211,-0.025,-0.0314,-0.0345,-0.0351,-0.039,-0.0393,-0.0388,-0.0402,-0.0391,-0.0391,-0.0391,-0.0391,-0.0391,-0.041,0,0.0068,0.0087,0.007,0.0093,0.0104,0.0072,0.007,0.0047,0.0015,-0.0002,-0.0074,-0.0111,-0.0179,-0.0203,-0.0243,-0.0328,-0.0351,-0.0341,-0.0435,-0.0437,-0.0422,-0.0391,-0.038,-0.0395,-0.0411,-0.0411,-0.0411,0,0.0101,0.0111,0.014,0.0153,0.0156,0.016,0.0163,0.0153,0.0115,0.0092,0.0048,-0.0009,-0.0065,-0.0125,-0.0232,-0.0223,-0.0298,-0.0361,-0.0364,-0.0379,-0.0427,-0.0426,-0.0396,-0.0563,-0.0413,-0.0413,-0.0413,0,0.0149,0.0163,0.0192,0.0195,0.0198,0.0209,0.0205,0.0182,0.0191,0.0151,0.0158,0.0075,0.005,-0.006,-0.0182,-0.021,-0.0289,-0.0349,-0.0405,-0.0405,-0.0424,-0.0426,-0.0557,-0.0412,-0.0412,-0.0412,-0.0412,0,0.0191,0.0216,0.0219,0.0237,0.0278,0.0259,0.0291,0.0277,0.0273,0.0311,0.0211,0.023,0.0065,-0.0,-0.0136,-0.0251,-0.0251,-0.0378,-0.0406,-0.0397,-0.0396,-0.0567,-0.0661,-0.0413,-0.0413,-0.0413,-0.0412,0,0.0237,0.0237,0.0279,0.0295,0.0302,0.033,0.0353,0.0383,0.0364,0.0413,0.0411,0.0355,0.0281,0.0122,-0.0036,-0.0169,-0.0388,-0.0345,-0.0307,-0.033,-0.055,-0.0638,-0.0775,-0.0848,-0.0414,-0.0414,-0.0414,0,0.0261,0.0288,0.0325,0.0357,0.0366,0.0398,0.043,0.0426,0.0472,0.0505,0.0552,0.05,0.0499,0.0272,0.0031,-0.0182,-0.0355,-0.0331,-0.0391,-0.0542,-0.0664,-0.073,-0.0787,-0.0388,-0.0387,-0.0387,-0.0387,0,0.0316,0.033,0.0363,0.0425,0.0469,0.0521,0.0571,0.0625,0.0654,0.071,0.0795,0.0799,0.0602,0.041,0.0108,-0.007,-0.0446,-0.0331,-0.0511,-0.0661,-0.072,-0.0809,-0.0385,-0.0384,-0.0384,-0.0385,-0.0385,-0.0385,0.0358,0.0393,0.0439,0.0501,0.0561,0.065,0.0707,0.0787,0.0889,0.1002,0.0997,0.1037,0.0726,0.0325,0.0069,-0.041,-0.0421,-0.0571,-0.0665,-0.0718,-0.0794,-0.0344,-0.0364,-0.0365,-0.0365,-0.0365,-0.0365,0,0.0408,0.0448,0.0512,0.0592,0.0675,0.0692,0.0813,0.0891,0.1037,0.1151,0.1232,0.112,0.0721,0.0287,-0.0333,-0.0682,-0.0831,-0.0888,-0.1007,-0.105,-0.067,-0.0677,-0.0737,-0.0737,-0.0737,-0.0737,-0.0737,-0.0737,0.0438,0.0506,0.0539,0.0678,0.0741,0.0859,0.0937,0.1067,0.1173,0.1326,0.1374,0.1384,0.1058,-0.0061,-0.0865,-0.1064,-0.1312,-0.1351,-0.1484,-0.1262,-0.1241,-0.1221,-0.1251,-0.143,-0.1431,-0.1824,-0.1828,-0.1831]}],[{"header":{"parameterUnit":"m.s-1","parameterCategory":2,"la1":30.2991,"la2":30.254,"lo1":-89.0895,"lo2":-89.0444,"dy":0.0017,"dx":0.0017,"nx":28,"ny":28,"refTime":"2023-09-19T03:00:00:Z","depth":"2","parameterNumber":2,"parameterNumberName":"U-component_of_CURRENTS"},"data":[0,0,0,0,0,0,0,0,0,0,0,0,0,0,0,0,0,0,0,0,0,0,0,0,0,0,0,0,0,0,0,0,0,0,0,0,0,0,0,0,0,0,0,0,0,0,0,0,0,0,0,0,0,0,0,0,0,0,0.1824,0.1824,0,0.1873,0.1873,0.1874,0.1889,0.1889,0.1888,0.1888,0.1933,0.1934,0.1936,0,0,0,0,0,0,0,0,0,0,0,0,0,0.1781,0.1781,0.1824,0.1824,0.1825,0.1873,0.1873,0.1874,0.1889,0.1889,0.1888,0.1888,0.1932,0.1934,0.1936,0,0,0,0,0,0,0,0,0,0,0,0,0,0.1813,0.1782,0.1824,0.1837,0.1838,0.1872,0.1874,0.1875,0.1889,0.1889,0.1888,0.1887,0.1932,0.1934,0.1936,0.1963,0,0,0.1944,0.1945,0,0,0,0,0,0,0,0,0.1811,0.1815,0.1834,0.1836,0.1838,0.1873,0.1875,0.1903,0.1889,0.1872,0.1888,0.1887,0.1912,0.1916,0.1929,0.1965,0.1967,0.1944,0.1945,0.1946,0.1947,0,0,0,0,0,0,0,0.1809,0.1813,0.1845,0.1835,0.1837,0.1853,0.1857,0.1881,0.1896,0.1873,0.1874,0.1877,0.1913,0.1926,0.193,0.1967,0.1944,0.1946,0.1947,0.1948,0.2104,0.2107,0,0,0,0,0,0,0.1798,0.1811,0.1843,0.1846,0.1821,0.1854,0.1858,0.1863,0.1896,0.1899,0.1877,0.1877,0.1923,0.1927,0.1931,0.1986,0.1946,0.1948,0.195,0.2102,0.2105,0.2108,0,0,0,0,0,0,0.1797,0.1801,0.1841,0.1828,0.1834,0.1855,0.1861,0.1865,0.1883,0.1898,0.1902,0.1892,0.1922,0.1928,0.1956,0.1986,0.1949,0.1952,0.2098,0.2103,0.2106,0.2081,0,0,0,0,0,0,0.1796,0.18,0.1806,0.1827,0.1834,0.1863,0.1861,0.1866,0.1885,0.1886,0.1913,0.1916,0.1922,0.1952,0.1958,0.1989,0.1953,0.2095,0.21,0.2105,0.2078,0.2083,0.2088,0,0,0,0,0,0.1794,0.1804,0.1806,0.181,0.184,0.1863,0.1869,0.1882,0.1886,0.1897,0.1914,0.1915,0.199,0.1955,0.1961,0.1994,0.2092,0.2099,0.2105,0.2076,0.2082,0.2088,0,0,0,0,0,0,0.1788,0.1806,0.181,0.1824,0.1842,0.1865,0.1878,0.1889,0.1913,0.1914,0.1928,0.1933,0.198,0.1998,0.1959,0.2064,0.2052,0.2059,0.2028,0.2034,0.2039,0.2022,0.1955,0,0,0,0,0,0.1789,0.1802,0.1819,0.1832,0.184,0.1862,0.1875,0.1884,0.1905,0.1915,0.1934,0.197,0.2014,0.2027,0.2067,0.2103,0.2126,0.2142,0.2147,0.2151,0.2148,0.2197,0.2204,0.2128,0.2128,0.2128,0,0,0.1789,0.1802,0.1808,0.1832,0.1847,0.1866,0.1869,0.189,0.191,0.1917,0.1951,0.1985,0.2031,0.2078,0.2103,0.209,0.2192,0.2158,0.216,0.2155,0.2204,0.2211,0.2217,0.2132,0.2132,0.2131,0,0,0.1797,0.1808,0.1821,0.1838,0.186,0.1874,0.1881,0.1908,0.1924,0.1956,0.1982,0.2021,0.2079,0.2111,0.2138,0.2198,0.2221,0.2236,0.2232,0.228,0.2286,0.229,0.2342,0.2351,0.2231,0.2231,0.2231,0,0.1796,0.1815,0.1829,0.1847,0.1862,0.1878,0.1896,0.1918,0.1951,0.1971,0.1966,0.2072,0.2094,0.2163,0.2182,0.2204,0.224,0.2192,0.2281,0.2286,0.2292,0.2343,0.2354,0.223,0.223,0.223,0.223,0,0.1813,0.1831,0.1841,0.1867,0.1886,0.1905,0.1929,0.1954,0.1973,0.1996,0.2063,0.2095,0.2157,0.2183,0.2191,0.2262,0.228,0.228,0.2248,0.2296,0.235,0.2361,0.223,0.223,0.223,0.223,0,0,0.1799,0.1844,0.1847,0.1865,0.1898,0.1916,0.1949,0.1987,0.2021,0.2052,0.2102,0.2161,0.2182,0.2217,0.2248,0.2275,0.2336,0.2288,0.2291,0.2309,0.2455,0.2424,0.2434,0.2349,0.235,0.2352,0.2479,0,0.1806,0.1844,0.1864,0.1899,0.1918,0.1946,0.1978,0.2016,0.2053,0.2105,0.2143,0.221,0.2198,0.2239,0.2263,0.2336,0.2365,0.2302,0.2433,0.2437,0.2377,0.2445,0.2257,0.2351,0.2491,0.2492,0.2494,0,0.1808,0.1837,0.1872,0.1921,0.1933,0.1958,0.2017,0.2051,0.2119,0.2152,0.2207,0.2251,0.232,0.2295,0.2407,0.2373,0.2409,0.2441,0.2447,0.2431,0.2427,0.2328,0.2367,0.2513,0.2512,0.251,0.2509,0,0.1788,0.1839,0.1869,0.1885,0.1942,0.1969,0.2003,0.2067,0.2109,0.2195,0.2247,0.2319,0.2389,0.2433,0.2502,0.2468,0.2618,0.2583,0.2587,0.2586,0.2457,0.2441,0.2645,0.2645,0.2645,0.2644,0.2644,0,0.178,0.1803,0.1866,0.1882,0.1918,0.1969,0.2017,0.2062,0.2149,0.2217,0.2276,0.2358,0.2428,0.2519,0.2542,0.2617,0.2659,0.2601,0.2619,0.2447,0.243,0.2589,0.258,0.2649,0.2648,0.2647,0.2646,0,0.1743,0.1786,0.1819,0.1887,0.1905,0.1932,0.201,0.206,0.2149,0.2247,0.2286,0.2421,0.2543,0.2606,0.2712,0.2691,0.275,0.2758,0.2556,0.2546,0.2672,0.2661,0.2772,0.2772,0.2772,0.2772,0.2772,0,0.1725,0.1741,0.1802,0.1823,0.1853,0.1902,0.1942,0.2037,0.2104,0.2288,0.2346,0.2503,0.2586,0.2732,0.2743,0.2789,0.2804,0.2626,0.2507,0.268,0.2687,0.2676,0.2666,0.2339,0.2335,0.2333,0.233,0,0.1684,0.1707,0.1734,0.1775,0.1818,0.1856,0.1934,0.1986,0.2126,0.2211,0.2358,0.2443,0.2609,0.2579,0.2651,0.2643,0.2596,0.2569,0.2826,0.233,0.228,0.2284,0.2287,0.2305,0.2307,0.2309,0.231,0.2311,0.1644,0.1646,0.1685,0.1718,0.1761,0.1804,0.1815,0.1917,0.1992,0.2113,0.2267,0.2327,0.2408,0.2414,0.238,0.236,0.2517,0.2391,0.2396,0.2405,0.2327,0.2278,0.2289,0.2291,0.2293,0.2295,0.2297,0,0.1585,0.1601,0.163,0.1657,0.1671,0.1723,0.1801,0.1804,0.1852,0.1997,0.2074,0.1976,0.1994,0.2073,0.2014,0.2034,0.1975,0.1946,0.1842,0.1872,0.1898,0.1787,0.161,0.1607,0.1604,0.1602,0,0,0.1554,0.1551,0.1567,0.1556,0.158,0.1569,0.1593,0.1612,0.1686,0.1705,0.1732,0.1899,0.2025,0.1772,0.177,0.1679,0.175,0.1621,0.2185,0.2094,0.2115,0.2184,0.2053,0,0,0,0,0]},{"header":{"parameterUnit":"m.s-1","parameterCategory":2,"la1":30.2991,"la2":30.254,"lo1":-89.0895,"lo2":-89.0444,"dy":0.0017,"dx":0.0017,"nx":28,"ny":28,"refTime":"2023-09-19T03:00:00:Z","depth":"2","parameterNumber":3,"parameterNumberName":"V-component_of_CURRENTS"},"data":[0,0,0,0,0,0,0,0,0,0,0,0,0,0,0,0,0,0,0,0,0,0,0,0,0,0,0,0,0,0,0,0,0,0,0,0,0,0,0,0,0,0,0,0,0,0,0,0,0,0,0,0,0,0,0,0,0,0,-0.0052,-0.0053,0,-0.0136,-0.0137,-0.0138,-0.0193,-0.0193,-0.0193,-0.0193,-0.0313,-0.0316,-0.0319,0,0,0,0,0,0,0,0,0,0,0,0,0,-0.0,-0.0001,-0.0052,-0.0053,-0.0054,-0.0135,-0.0137,-0.0138,-0.0193,-0.0193,-0.0193,-0.0193,-0.0312,-0.0316,-0.0319,0,0,0,0,0,0,0,0,0,0,0,0,0,-0.005,-0.0001,-0.0052,-0.0089,-0.0093,-0.0135,-0.0137,-0.0139,-0.0193,-0.0193,-0.0193,-0.0193,-0.0311,-0.0315,-0.032,-0.0346,0,0,-0.0334,-0.0336,0,0,0,0,0,0,0,0,-0.0047,-0.0052,-0.0083,-0.0086,-0.0091,-0.0151,-0.0162,-0.0209,-0.0193,-0.0158,-0.0193,-0.0193,-0.0261,-0.0269,-0.0288,-0.0351,-0.0356,-0.0335,-0.0337,-0.0339,-0.0341,0,0,0,0,0,0,0,-0.0043,-0.0049,-0.0088,-0.0083,-0.0088,-0.0121,-0.0128,-0.0172,-0.021,-0.0161,-0.0164,-0.0169,-0.0263,-0.0283,-0.0291,-0.0358,-0.0334,-0.0339,-0.0341,-0.0343,-0.0473,-0.0474,0,0,0,0,0,0,-0.0024,-0.0045,-0.0085,-0.009,-0.0066,-0.0122,-0.013,-0.0134,-0.0209,-0.0219,-0.0169,-0.0171,-0.0275,-0.0286,-0.0296,-0.0323,-0.0339,-0.0344,-0.0346,-0.0472,-0.0473,-0.0474,0,0,0,0,0,0,-0.0023,-0.0027,-0.0082,-0.0068,-0.0077,-0.0122,-0.0127,-0.0136,-0.0152,-0.0214,-0.0226,-0.0175,-0.0276,-0.0289,-0.0326,-0.0328,-0.0346,-0.035,-0.0472,-0.0473,-0.0474,-0.0382,0,0,0,0,0,0,-0.0021,-0.0026,-0.0025,-0.0066,-0.0077,-0.0097,-0.0127,-0.0137,-0.0153,-0.0157,-0.0223,-0.0235,-0.0277,-0.0319,-0.0331,-0.0335,-0.0354,-0.0471,-0.0472,-0.0473,-0.0385,-0.038,-0.0376,0,0,0,0,0,-0.0019,-0.0014,-0.0024,-0.0029,-0.0073,-0.0096,-0.0105,-0.014,-0.0153,-0.0156,-0.0199,-0.0233,-0.0336,-0.0322,-0.0337,-0.0342,-0.047,-0.0472,-0.0473,-0.0386,-0.0381,-0.0376,0,0,0,0,0,0,0.0007,-0.002,-0.0032,-0.0037,-0.0059,-0.0104,-0.0112,-0.0133,-0.017,-0.0175,-0.0233,-0.0247,-0.0286,-0.0328,-0.0312,-0.0387,-0.0413,-0.0417,-0.0342,-0.0338,-0.0334,-0.0304,-0.0358,0,0,0,0,0,0.0016,0.0013,-0.0018,-0.0021,-0.0029,-0.0068,-0.0082,-0.0103,-0.014,-0.0156,-0.0202,-0.0257,-0.0305,-0.0329,-0.038,-0.0412,-0.0436,-0.0431,-0.0426,-0.0422,-0.041,-0.0442,-0.0439,-0.0479,-0.0479,-0.0479,0,0,0.0025,0.001,0.0008,-0.0015,-0.0037,-0.0045,-0.0078,-0.0092,-0.01,-0.0164,-0.0191,-0.0242,-0.0311,-0.0349,-0.0372,-0.0382,-0.0424,-0.0424,-0.042,-0.041,-0.0443,-0.0439,-0.0435,-0.048,-0.048,-0.048,0,0,0.0046,0.0031,0.0036,0.0021,-0.0001,-0.0024,-0.0022,-0.0062,-0.0081,-0.0109,-0.0162,-0.02,-0.0279,-0.032,-0.0353,-0.0357,-0.0402,-0.039,-0.0341,-0.0372,-0.0368,-0.0365,-0.0379,-0.0378,-0.0386,-0.0385,-0.0385,0,0.0059,0.0059,0.0034,0.0035,0.0029,-0.0009,-0.0003,-0.0028,-0.0075,-0.0086,-0.0107,-0.0209,-0.0261,-0.0303,-0.0308,-0.0344,-0.0368,-0.0347,-0.0362,-0.036,-0.0358,-0.0374,-0.0374,-0.0381,-0.0382,-0.0382,-0.0383,0,0.0081,0.0081,0.0084,0.0075,0.0065,0.0064,0.0034,0.0021,-0.0005,-0.0033,-0.0076,-0.0143,-0.0199,-0.023,-0.0269,-0.0293,-0.0315,-0.0349,-0.0362,-0.0347,-0.0366,-0.0368,-0.0375,-0.0377,-0.0378,-0.0379,0,0,0.0112,0.0103,0.0103,0.0112,0.0089,0.0087,0.0079,0.0062,0.0063,0.0012,0.0006,-0.0075,-0.0107,-0.0147,-0.0205,-0.0232,-0.0236,-0.0279,-0.0283,-0.0271,-0.0294,-0.031,-0.0313,-0.0275,-0.0275,-0.0275,-0.0307,0,0.0139,0.0156,0.0141,0.016,0.0169,0.0141,0.014,0.012,0.0093,0.0076,0.0015,-0.002,-0.0078,-0.0101,-0.0136,-0.0217,-0.0239,-0.0224,-0.0331,-0.0333,-0.033,-0.0315,-0.0289,-0.0317,-0.0309,-0.0309,-0.0309,0,0.0167,0.0176,0.0201,0.0213,0.0215,0.0219,0.022,0.0212,0.0178,0.0158,0.0118,0.0066,0.0017,-0.0033,-0.0136,-0.0126,-0.0196,-0.0255,-0.0259,-0.0304,-0.0351,-0.0337,-0.032,-0.0312,-0.0312,-0.0312,-0.0312,0,0.0209,0.0221,0.0247,0.0249,0.0252,0.0261,0.0258,0.0236,0.0246,0.0208,0.0214,0.0138,0.0114,0.0011,-0.0104,-0.0123,-0.021,-0.0256,-0.0332,-0.0333,-0.0348,-0.0351,-0.0318,-0.0318,-0.0318,-0.0318,-0.0317,0,0.0245,0.0267,0.027,0.0286,0.0323,0.0306,0.0334,0.032,0.0316,0.0347,0.026,0.0271,0.0125,0.0056,-0.0069,-0.0192,-0.0183,-0.0311,-0.0342,-0.0317,-0.0316,-0.0348,-0.0352,-0.0319,-0.0319,-0.0318,-0.0318,0,0.0285,0.0286,0.0323,0.0337,0.0344,0.0368,0.039,0.0416,0.0398,0.0438,0.0435,0.0379,0.0289,0.014,-0.0013,-0.013,-0.0263,-0.031,-0.026,-0.0285,-0.0374,-0.0373,-0.0399,-0.04,-0.0401,-0.0401,-0.0402,0,0.0306,0.0329,0.0363,0.0392,0.04,0.0429,0.0458,0.0455,0.0494,0.0514,0.0551,0.0482,0.0448,0.0215,-0.0005,-0.0216,-0.0248,-0.0328,-0.0368,-0.0355,-0.0382,-0.0379,-0.0377,-0.0348,-0.0348,-0.0348,-0.0348,0,0.0353,0.0365,0.0396,0.045,0.049,0.0537,0.058,0.0627,0.0649,0.0682,0.0728,0.07,0.0489,0.0286,-0.0004,-0.0152,-0.0299,-0.0336,-0.0332,-0.0333,-0.031,-0.0336,-0.0335,-0.0348,-0.0348,-0.0348,-0.0348,-0.0348,0.0389,0.042,0.0462,0.0516,0.0571,0.0648,0.0696,0.0755,0.0827,0.0889,0.0863,0.0827,0.0595,0.0224,-0.003,-0.0297,-0.0298,-0.039,-0.0389,-0.0388,-0.0378,-0.0358,-0.0401,-0.0401,-0.0402,-0.0402,-0.0402,0,0.0431,0.0467,0.0524,0.0594,0.0668,0.0685,0.0787,0.0843,0.0938,0.0983,0.1,0.0797,0.0553,0.0284,-0.011,-0.0353,-0.0377,-0.0424,-0.0395,-0.0393,-0.0392,-0.0382,-0.0407,-0.0407,-0.0408,-0.0409,0,0,0.0457,0.0517,0.0545,0.0666,0.0722,0.0824,0.089,0.0973,0.1028,0.1072,0.1052,0.0976,0.0652,0.0373,0.0044,-0.0176,-0.0232,-0.0225,-0.0196,-0.0121,-0.0117,-0.0348,-0.0327,0,0,0,0,0]}],[{"header":{"parameterUnit":"m.s-1","parameterCategory":2,"la1":30.2991,"la2":30.254,"lo1":-89.0895,"lo2":-89.0444,"dy":0.0017,"dx":0.0017,"nx":28,"ny":28,"refTime":"2023-09-19T03:00:00:Z","depth":"4","parameterNumber":2,"parameterNumberName":"U-component_of_CURRENTS"},"data":[0,0,0,0,0,0,0,0,0,0,0,0,0,0,0,0,0,0,0,0,0,0,0,0,0,0,0,0,0,0,0,0,0,0,0,0,0,0,0,0,0,0,0,0,0,0,0,0,0,0,0,0,0,0,0,0,0,0,0.1197,0.1197,0,0.1218,0.1218,0.1218,0.1249,0.125,0.1251,0.1252,0.1249,0.1248,0.1247,0,0,0,0,0,0,0,0,0,0,0,0,0,0.1131,0.1132,0.1197,0.1197,0.1198,0.1218,0.1218,0.1218,0.1249,0.125,0.1252,0.1253,0.1249,0.1248,0.1247,0,0,0,0,0,0,0,0,0,0,0,0,0,0.1152,0.1132,0.1196,0.122,0.1222,0.1218,0.1218,0.1218,0.1249,0.125,0.1252,0.1253,0.1249,0.1248,0.1246,0.1207,0,0,0.1242,0.1241,0,0,0,0,0,0,0,0,0.1151,0.1154,0.1216,0.1218,0.1221,0.1237,0.1194,0.1214,0.1248,0.1234,0.1252,0.1254,0.1244,0.1243,0.1238,0.1207,0.1207,0.1242,0.1241,0.124,0.124,0,0,0,0,0,0,0,0.1149,0.1153,0.12,0.1216,0.122,0.1211,0.1216,0.1197,0.1226,0.1235,0.1239,0.1248,0.1245,0.1239,0.1238,0.1207,0.1242,0.124,0.1239,0.1239,0.123,0.1231,0,0,0,0,0,0,0.1158,0.1152,0.12,0.1201,0.1194,0.1212,0.1217,0.1226,0.1227,0.123,0.1247,0.125,0.1241,0.1239,0.1238,0.1278,0.124,0.1239,0.1238,0.123,0.123,0.1231,0,0,0,0,0,0,0.1156,0.1161,0.1199,0.1181,0.1186,0.1212,0.1222,0.1226,0.1251,0.1237,0.1239,0.1272,0.1242,0.124,0.1255,0.1275,0.1238,0.1236,0.1229,0.123,0.1231,0.1303,0,0,0,0,0,0,0.1154,0.1161,0.1177,0.1181,0.1187,0.1218,0.1221,0.1225,0.1255,0.1259,0.1258,0.1258,0.1243,0.1257,0.1253,0.1272,0.1235,0.1228,0.1229,0.1231,0.13,0.1306,0.1312,0,0,0,0,0,0.1151,0.1165,0.1177,0.1184,0.1206,0.1219,0.1221,0.1241,0.1255,0.1267,0.1275,0.126,0.1262,0.1257,0.1252,0.1271,0.1227,0.1229,0.123,0.1297,0.1305,0.1312,0,0,0,0,0,0,0.1143,0.117,0.1184,0.1205,0.1223,0.1227,0.1245,0.1255,0.1269,0.1284,0.1267,0.1267,0.1286,0.1266,0.126,0.1271,0.1242,0.1243,0.1294,0.1301,0.1307,0.1329,0.1234,0,0,0,0,0,0.1149,0.117,0.119,0.121,0.1224,0.1238,0.125,0.1266,0.1277,0.1286,0.1287,0.1285,0.128,0.1285,0.1274,0.1279,0.1282,0.1288,0.1294,0.1299,0.1314,0.1337,0.1347,0.1236,0.1236,0.1236,0,0,0.1151,0.1171,0.1183,0.1211,0.1227,0.1247,0.1249,0.128,0.1299,0.1281,0.1311,0.1306,0.1286,0.1298,0.1303,0.1291,0.1333,0.1301,0.1306,0.1318,0.134,0.1351,0.1361,0.1237,0.1237,0.1237,0,0,0.1159,0.1187,0.1206,0.1226,0.1264,0.1271,0.1288,0.1311,0.1328,0.1351,0.1344,0.1362,0.135,0.1348,0.1341,0.1373,0.1363,0.1365,0.1418,0.1441,0.1451,0.146,0.1485,0.1495,0.1371,0.1372,0.1372,0,0.1164,0.119,0.1212,0.1238,0.1261,0.1287,0.1312,0.1326,0.1352,0.1369,0.1374,0.1385,0.1375,0.1388,0.1408,0.1388,0.1403,0.1394,0.1452,0.146,0.1468,0.1491,0.1501,0.1375,0.1375,0.1374,0.1374,0,0.1179,0.1211,0.1227,0.1268,0.1292,0.1322,0.135,0.1381,0.1408,0.1421,0.1455,0.145,0.1462,0.1458,0.1447,0.1491,0.1484,0.1456,0.1438,0.1484,0.1505,0.1514,0.138,0.1379,0.1378,0.1377,0,0,0.1163,0.1225,0.1234,0.1263,0.1316,0.1336,0.1379,0.1418,0.1453,0.1482,0.1519,0.153,0.1545,0.1539,0.1529,0.1555,0.1626,0.1543,0.1542,0.1577,0.1691,0.1602,0.1604,0.1615,0.1617,0.1618,0.1687,0,0.1172,0.1219,0.1249,0.1301,0.1329,0.1375,0.1409,0.1452,0.1489,0.153,0.1547,0.1575,0.1567,0.1587,0.1615,0.1621,0.1654,0.1611,0.1633,0.1634,0.1557,0.1612,0.1624,0.1694,0.1696,0.1698,0.1699,0,0.1175,0.1209,0.1259,0.1325,0.1343,0.138,0.1455,0.1489,0.1551,0.1581,0.1627,0.1638,0.169,0.1668,0.173,0.1708,0.1717,0.1718,0.1719,0.1619,0.1562,0.1635,0.1716,0.1715,0.1713,0.1712,0.1711,0,0.1146,0.1215,0.1256,0.1281,0.1356,0.1398,0.1444,0.1512,0.1546,0.1625,0.1661,0.1713,0.1749,0.1776,0.1798,0.1776,0.1854,0.1813,0.174,0.1734,0.1762,0.1752,0.1858,0.1858,0.1858,0.1857,0.1857,0,0.1133,0.1171,0.1254,0.1279,0.1334,0.1398,0.1462,0.1515,0.1587,0.1629,0.1692,0.1728,0.1783,0.1825,0.1831,0.1826,0.1885,0.1769,0.175,0.179,0.1782,0.1769,0.1758,0.186,0.1859,0.1859,0.1859,0,0.1092,0.1147,0.1201,0.1292,0.1323,0.1367,0.1463,0.1504,0.1588,0.1647,0.1677,0.1763,0.1829,0.1867,0.1915,0.186,0.1862,0.184,0.1904,0.1885,0.172,0.1711,0.1768,0.1765,0.1763,0.1761,0.176,0,0.1072,0.1097,0.1197,0.1231,0.1278,0.1353,0.1399,0.1492,0.1528,0.1653,0.1667,0.177,0.1817,0.1815,0.1867,0.1879,0.1849,0.1836,0.176,0.1736,0.1713,0.1708,0.1703,0.1757,0.1756,0.1756,0.1755,0,0.1031,0.1078,0.1122,0.1189,0.1249,0.1298,0.1371,0.1381,0.1489,0.158,0.1621,0.1656,0.1727,0.1761,0.1788,0.1786,0.1835,0.1813,0.1816,0.1745,0.1723,0.1701,0.1699,0.1748,0.1749,0.175,0.175,0,0.1003,0.1019,0.1082,0.1133,0.1199,0.1222,0.1268,0.1314,0.1359,0.1485,0.1504,0.1615,0.1714,0.1715,0.174,0.1738,0.1703,0.1628,0.164,0.1649,0.1577,0.153,0.1496,0,0,0,0,0,0.0964,0.0976,0.102,0.1066,0.1128,0.1166,0.1238,0.1284,0.1382,0.1375,0.143,0.149,0.1539,0.1597,0.1571,0.1692,0.171,0.1654,0.163,0.1708,0.1716,0.1642,0,0,0,0,0,0,0.0937,0.0976,0.0993,0.1,0.1021,0.1075,0.1117,0.1186,0.1177,0.1285,0.1318,0.141,0.1477,0.1547,0.1549,0.1566,0.1521,0.1726,0.1722,0.1703,0.1711,0.1717,0.1644,0,0,0,0,0]},{"header":{"parameterUnit":"m.s-1","parameterCategory":2,"la1":30.2991,"la2":30.254,"lo1":-89.0895,"lo2":-89.0444,"dy":0.0017,"dx":0.0017,"nx":28,"ny":28,"refTime":"2023-09-19T03:00:00:Z","depth":"4","parameterNumber":3,"parameterNumberName":"V-component_of_CURRENTS"},"data":[0,0,0,0,0,0,0,0,0,0,0,0,0,0,0,0,0,0,0,0,0,0,0,0,0,0,0,0,0,0,0,0,0,0,0,0,0,0,0,0,0,0,0,0,0,0,0,0,0,0,0,0,0,0,0,0,0,0,0.0016,0.0016,0,-0.0018,-0.0019,-0.0019,-0.0047,-0.0047,-0.0048,-0.0048,-0.0093,-0.0094,-0.0095,0,0,0,0,0,0,0,0,0,0,0,0,0,0.0045,0.0045,0.0016,0.0016,0.0015,-0.0018,-0.0019,-0.0019,-0.0047,-0.0047,-0.0048,-0.0048,-0.0093,-0.0094,-0.0095,0,0,0,0,0,0,0,0,0,0,0,0,0,0.0024,0.0045,0.0016,-0.0003,-0.0005,-0.0018,-0.0019,-0.0019,-0.0047,-0.0047,-0.0048,-0.0048,-0.0092,-0.0093,-0.0095,-0.0092,0,0,-0.0099,-0.0099,0,0,0,0,0,0,0,0,0.0026,0.0023,0.0,-0.0002,-0.0004,-0.0029,-0.0025,-0.0044,-0.0047,-0.003,-0.0048,-0.0048,-0.0073,-0.0076,-0.008,-0.0095,-0.0096,-0.0099,-0.01,-0.01,-0.0101,0,0,0,0,0,0,0,0.0027,0.0025,0.0003,-0.0,-0.0003,-0.0015,-0.0018,-0.0029,-0.0048,-0.0032,-0.0034,-0.0039,-0.0074,-0.0078,-0.0081,-0.0097,-0.0099,-0.01,-0.0101,-0.0101,-0.0118,-0.0118,0,0,0,0,0,0,0.0031,0.0026,0.0004,0.0002,0.0009,-0.0015,-0.0018,-0.002,-0.0047,-0.0052,-0.0038,-0.004,-0.0076,-0.008,-0.0083,-0.0086,-0.01,-0.0101,-0.0102,-0.0118,-0.0118,-0.0118,0,0,0,0,0,0,0.0032,0.003,0.0006,0.0013,0.0009,-0.0015,-0.0017,-0.0021,-0.0027,-0.0052,-0.0057,-0.0041,-0.0077,-0.0081,-0.0095,-0.0088,-0.0102,-0.0103,-0.0119,-0.0118,-0.0118,-0.009,0,0,0,0,0,0,0.0033,0.003,0.0032,0.0013,0.0008,-0.0001,-0.0016,-0.0021,-0.0029,-0.0032,-0.0056,-0.0061,-0.0077,-0.0093,-0.0096,-0.009,-0.0104,-0.0119,-0.0119,-0.0118,-0.0091,-0.0088,-0.0086,0,0,0,0,0,0.0034,0.0039,0.0033,0.003,0.0011,-0.0001,-0.0004,-0.0022,-0.0029,-0.003,-0.0048,-0.006,-0.0091,-0.0094,-0.0098,-0.0092,-0.0119,-0.0119,-0.0118,-0.0092,-0.0089,-0.0086,0,0,0,0,0,0,0.0051,0.0036,0.0028,0.0028,0.0015,-0.0006,-0.0008,-0.0019,-0.0033,-0.0035,-0.0059,-0.0064,-0.0071,-0.0085,-0.0088,-0.0094,-0.0106,-0.0106,-0.0085,-0.0082,-0.0079,-0.008,-0.0105,0,0,0,0,0,0.0057,0.0057,0.0038,0.0038,0.0033,0.0014,0.0008,-0.0004,-0.002,-0.0027,-0.0045,-0.0061,-0.007,-0.008,-0.009,-0.0097,-0.0118,-0.0094,-0.0092,-0.0089,-0.0092,-0.0121,-0.0121,-0.0115,-0.0115,-0.0115,0,0,0.0063,0.0055,0.0054,0.0042,0.0031,0.0028,0.0009,0.0002,-0.0001,-0.0029,-0.0037,-0.0051,-0.0069,-0.0075,-0.0079,-0.0088,-0.0101,-0.0088,-0.0086,-0.0091,-0.012,-0.0121,-0.0121,-0.0114,-0.0115,-0.0115,0,0,0.0077,0.0069,0.0073,0.0065,0.0051,0.004,0.0039,0.002,0.0011,0.0001,-0.0016,-0.003,-0.0046,-0.0061,-0.0068,-0.0058,-0.0083,-0.0057,-0.0049,-0.0076,-0.0077,-0.0078,-0.01,-0.0104,-0.0059,-0.0059,-0.0058,0,0.0086,0.0088,0.0073,0.0074,0.0071,0.0048,0.0052,0.0041,0.0019,0.0013,0.0002,-0.0024,-0.004,-0.0049,-0.0047,-0.0053,-0.0072,-0.0059,-0.0073,-0.0075,-0.0076,-0.0099,-0.0104,-0.0057,-0.0057,-0.0057,-0.0058,0,0.01,0.0102,0.0104,0.0099,0.0095,0.0094,0.0077,0.007,0.0057,0.0043,0.003,0.0004,-0.0012,-0.0017,-0.0031,-0.0045,-0.0056,-0.0064,-0.0082,-0.0075,-0.01,-0.0105,-0.0055,-0.0056,-0.0056,-0.0056,0,0,0.0119,0.0116,0.0116,0.0123,0.0109,0.011,0.0106,0.0096,0.0097,0.0069,0.0066,0.004,0.0022,0.0012,-0.0007,-0.0036,-0.0064,-0.0056,-0.0058,-0.0079,-0.0123,-0.0132,-0.0138,-0.0076,-0.0077,-0.0078,-0.0133,0,0.0135,0.0147,0.014,0.0155,0.0161,0.0144,0.0146,0.0134,0.0117,0.0107,0.0074,0.0066,0.0035,0.0031,-0.0004,-0.0045,-0.0076,-0.0048,-0.0125,-0.0127,-0.0137,-0.0144,-0.008,-0.0137,-0.0138,-0.0139,-0.014,0,0.0151,0.0159,0.0178,0.0189,0.0191,0.0196,0.0197,0.0194,0.017,0.0159,0.0133,0.0107,0.0068,0.0043,-0.0039,-0.002,-0.007,-0.011,-0.0113,-0.0136,-0.0145,-0.0147,-0.0149,-0.0148,-0.0147,-0.0147,-0.0146,0,0.0175,0.0187,0.0206,0.0208,0.0215,0.0223,0.0224,0.0209,0.0216,0.019,0.0192,0.0136,0.012,0.0043,-0.0041,-0.0041,-0.0136,-0.0143,-0.02,-0.0201,-0.0189,-0.0187,-0.0206,-0.0206,-0.0206,-0.0206,-0.0206,0,0.0194,0.0211,0.0221,0.0232,0.026,0.0253,0.0274,0.0266,0.0262,0.0277,0.0222,0.0219,0.0118,0.0053,-0.0032,-0.0132,-0.0131,-0.0204,-0.0219,-0.0174,-0.017,-0.0192,-0.019,-0.0208,-0.0208,-0.0207,-0.0207,0,0.0214,0.022,0.0248,0.0265,0.0273,0.0292,0.0314,0.0331,0.032,0.0336,0.0335,0.0281,0.0194,0.0084,-0.0038,-0.0109,-0.021,-0.0246,-0.0188,-0.0198,-0.0259,-0.0254,-0.0314,-0.0315,-0.0316,-0.0316,-0.0317,0,0.0223,0.024,0.0274,0.0297,0.0307,0.0333,0.0356,0.0359,0.0379,0.0374,0.0389,0.0318,0.0265,0.0092,-0.0035,-0.0205,-0.0229,-0.028,-0.0277,-0.0263,-0.0272,-0.0266,-0.0261,-0.0318,-0.0318,-0.0318,-0.0318,0,0.0246,0.0261,0.0284,0.0329,0.0363,0.04,0.043,0.0447,0.0457,0.0454,0.0439,0.0348,0.0248,0.0102,-0.0033,-0.0155,-0.0248,-0.0288,-0.0287,-0.0285,-0.0268,-0.0275,-0.0269,-0.0321,-0.0321,-0.032,-0.032,0,0.0264,0.0286,0.0322,0.0361,0.0411,0.0454,0.0462,0.0484,0.0501,0.0494,0.0487,0.0377,0.0314,0.0127,0.0002,-0.0122,-0.0154,-0.019,-0.0195,-0.0194,-0.0149,-0.0109,-0.0129,0,0,0,0,0,0.0278,0.0305,0.0348,0.0396,0.0449,0.0477,0.0513,0.0516,0.0523,0.0525,0.0507,0.0415,0.0235,0.0153,0.0029,-0.0028,-0.0188,-0.018,-0.0235,-0.0335,-0.0332,-0.0301,0,0,0,0,0,0,0.0289,0.033,0.0351,0.0424,0.0462,0.0521,0.0546,0.0547,0.0539,0.0529,0.0435,0.0391,0.0211,0.0316,0.0033,-0.0007,-0.0059,-0.0265,-0.0268,-0.0336,-0.0334,-0.0331,-0.0299,0,0,0,0,0]}]]